Portada
METAR-TAF:

METAR-TAF

Aeropuertos :

Russellville Regional Airport

Russellville, Arkansas, Estados Unidos

latitud: 35-15-32N, longitud: 093-05-36W, altitud: 123 m

Observación

El informe se hizo hace 26 minutos, a las 09:53 UTC
Viento calma
Temperatura 22°C
Humedad 88%
Presión 1014 hPa
Visibilidad: 16.1 km
Cielo despejado

METAR: KRUE 060953Z AUTO 00000KT 10SM CLR 22/20 A2994 RMK AO2 SLP130 T02170200

Hora: 05:19 (10:19 UTC)


TAF: falta

Observaciones y pronósticos meteorológicos de más de 4000 aeropuertos (mensajes METAR y TAF).

Los puntos amarillos y rojos representan las estaciones disponibles.

Ponga el ratón en el punto deseado para ver el nombre de la estación.

Haga clic para ver las observaciones y los pronósticos meteorológicos.

Para cambiar el mapa : haga clic en los botones verdes con una cruz de color negro para hacer un zoom, en el botón verde con un guión para alejar o en las flechas verdes para mapas adyacentes.


METAR-TAF: